Location: Caltech
(34.1382°N, 118.1253°W)
Time: 06:50:48
(UTC-07:00)

Gbstr 26 Del rocket - Visible Passes

Search period start: 27 September 2016 00:00
Search period end: 07 October 2016 00:00
Orbit: 494 x 1267 km, 51.8° (Epoch: 26 September)

Date Brightness Start Highest point End Pass type
(mag) Time Alt. Az. Time Alt. Az. Time Alt. Az.
27 Sep 6.1 02:45:46 25° ENE 02:45:46 25° ENE 02:49:58 10° E visible
27 Sep 4.3 04:28:27 44° NW 04:31:17 89° SW 04:39:27 10° SE visible
27 Sep 5.6 06:12:34 10° WNW 06:18:16 22° WSW 06:24:10 10° S visible
27 Sep 4.3 19:22:10 10° S 19:25:29 22° ESE 19:28:30 13° ENE visible
27 Sep 4.4 21:07:38 10° WSW 21:11:10 43° WNW 21:11:10 43° WNW visible
28 Sep 6.3 02:43:22 21° E 02:43:22 21° E 02:46:15 10° E visible
28 Sep 4.3 04:26:04 66° W 04:27:06 76° SW 04:35:13 10° SE visible
28 Sep 5.8 06:09:10 10° W 06:13:57 17° WSW 06:18:51 10° SSW visible
28 Sep 3.9 19:17:30 10° S 19:21:11 30° SE 19:25:28 10° ENE visible
28 Sep 4.5 21:03:46 10° WSW 21:08:02 38° NNW 21:08:14 38° NNW visible
29 Sep 6.6 02:41:07 15° E 02:41:07 15° E 02:42:28 10° ESE visible
29 Sep 4.5 04:23:50 59° SSW 04:23:50 59° SSW 04:30:53 10° SSE visible
29 Sep 6.0 06:06:31 10° W 06:09:36 13° WSW 06:13:01 10° SW visible
29 Sep 3.5 19:13:01 10° SSW 19:16:54 41° SE 19:21:33 10° ENE visible
29 Sep 4.9 20:59:57 10° W 21:04:03 31° NNW 21:05:04 29° N visible
30 Sep 5.2 04:21:38 36° S 04:21:38 36° S 04:26:26 10° SSE visible
30 Sep 3.2 19:08:39 10° SSW 19:12:40 57° SE 19:17:31 10° NE visible
30 Sep 5.2 20:56:14 10° W 21:00:06 26° NNW 21:01:41 22° N visible
01 Oct 6.0 04:19:23 21° S 04:19:23 21° S 04:21:53 10° SSE visible
01 Oct 3.0 19:04:25 10° SW 19:08:30 78° SE 19:13:26 10° NE visible
01 Oct 5.4 20:52:33 10° WNW 20:56:10 22° NNW 20:58:07 18° N visible
02 Oct 6.6 04:17:03 10° S 04:17:03 10° S 04:17:11 10° S visible
02 Oct 3.2 19:00:17 10° SW 19:04:21 78° NW 19:09:16 10° NE visible
02 Oct 5.6 20:48:57 10° WNW 20:52:17 19° NNW 20:54:24 15° N visible
03 Oct 3.6 18:56:14 10° WSW 19:00:15 58° NW 19:05:04 10° NE visible
03 Oct 5.7 20:45:26 10° NW 20:48:24 16° NNW 20:50:35 13° NNE visible
04 Oct 4.1 18:52:17 10° WSW 18:56:10 43° NW 19:00:49 10° NE visible
04 Oct 5.8 20:41:56 10° NW 20:44:32 14° NNW 20:46:40 12° NNE visible
05 Oct 5.9 20:38:29 10° NW 20:40:42 13° N 20:42:42 11° NNE visible
06 Oct 4.8 18:44:38 10° W 18:48:10 27° NNW 18:52:14 10° NNE visible
06 Oct 5.9 20:35:03 10° NNW 20:36:51 12° N 20:38:40 10° NNE visible
